This is the latest recevied weather packets stored in our database for station/object OK2JCZ-6. If no packets are shown the sender has not sent any weather packets the latest 10 day(s).
| Time | Temp. | Humidity | Pressure | Rain* | Wind** | Luminosity | Snow |
|---|---|---|---|---|---|---|---|
| 1777253075 | -1.11° C | 62% | 1023.2 hPa | 0 mm | - | - | - |
| 1777252775 | -1.11° C | 62% | 1023.2 hPa | 0 mm | - | - | - |
| 1777252175 | -1.11° C | 60% | 1023.2 hPa | 0 mm | - | - | - |
| 1777251575 | -1.11° C | 60% | 1023.2 hPa | 0 mm | - | - | - |
| 1777251275 | -1.11° C | 60% | 1023.2 hPa | 0 mm | - | - | - |
| 1777250975 | -1.11° C | 60% | 1023.2 hPa | 0 mm | - | - | - |
| 1777250375 | -1.11° C | 60% | 1023.3 hPa | 0 mm | - | - | - |
| 1777250078 | -0.56° C | 59% | 1023.4 hPa | 0 mm | - | - | - |
| 1777249775 | -0.56° C | 57% | 1023.4 hPa | 0 mm | - | - | - |
| 1777248575 | 0° C | 57% | 1023.4 hPa | 0 mm | - | - | - |
| 1777247675 | -0.56° C | 60% | 1023.5 hPa | 0 mm | - | - | - |
| 1777247375 | -0.56° C | 61% | 1023.5 hPa | 0 mm | - | - | - |
| 1777246475 | -0.56° C | 63% | 1023.6 hPa | 0 mm | - | - | - |
| 1777246175 | -0.56° C | 62% | 1023.6 hPa | 0 mm | - | - | - |
| 1777245575 | -0.56° C | 59% | 1023.5 hPa | 0 mm | - | - | - |
| 1777245275 | 0° C | 61% | 1023.5 hPa | 0 mm | - | - | - |
| 1777244375 | 0° C | 55% | 1023.5 hPa | 0 mm | - | - | - |
| 1777244075 | 0° C | 54% | 1023.6 hPa | 0 mm | - | - | - |
| 1777243777 | 0.56° C | 51% | 1023.5 hPa | 0 mm | - | - | - |
| 1777242875 | 1.11° C | 51% | 1023.4 hPa | 0 mm | - | - | - |
| 1777241975 | 1.11° C | 52% | 1023.2 hPa | 0 mm | - | - | - |
| 1777241675 | 1.11° C | 52% | 1023.3 hPa | 0 mm | - | - | - |
| 1777241075 | 1.11° C | 50% | 1023.2 hPa | 0 mm | - | - | - |
| 1777240775 | 1.67° C | 51% | 1023.2 hPa | 0 mm | - | - | - |
| 1777240475 | 1.67° C | 51% | 1023.2 hPa | 0 mm | - | - | - |
* Rain latest hour (hover to see other rain measurements)
** Current wind speed in m/s (hover to see current wind gust speed)